EN

Hourly Weather Bolshie Ozerki

Today, 28 October, Wednesday

Time Temperature Precipitation Wind Pressure Humidity
00:00 +3°C° 0 mm 4 mps 755 mmHg 68%
01:00 +1°C° 0 mm 4 mps 755 mmHg 69%
02:00 +1°C° 0 mm 4 mps 756 mmHg 69%
03:00 +1°C° 0 mm 4 mps 756 mmHg 69%
04:00 0°C° 0 mm 4 mps 755 mmHg 69%
05:00 0°C° 0 mm 4 mps 755 mmHg 69%
06:00 0°C° 0 mm 4 mps 755 mmHg 69%
07:00 0°C° 0 mm 4 mps 755 mmHg 66%
08:00 0°C° 0 mm 5 mps 755 mmHg 63%
09:00 +1°C° 0 mm 5 mps 755 mmHg 61%
10:00 +2°C° 0 mm 5 mps 755 mmHg 57%
11:00 +3°C° 0 mm 5 mps 755 mmHg 54%
12:00 +6°C° 0 mm 5 mps 755 mmHg 51%
13:00 +6°C° 0 mm 5 mps 754 mmHg 50%
14:00 +7°C° 0 mm 5 mps 754 mmHg 49%
15:00 +7°C° 0 mm 4 mps 754 mmHg 49%
16:00 +6°C° 0 mm 4 mps 754 mmHg 51%
17:00 +5°C° 0 mm 4 mps 754 mmHg 54%
18:00 +4°C° 0 mm 3 mps 754 mmHg 56%
19:00 +3°C° 0 mm 3 mps 754 mmHg 55%
20:00 +3°C° 0 mm 3 mps 754 mmHg 54%
21:00 +3°C° 0 mm 4 mps 754 mmHg 52%
22:00 +2°C° 0 mm 3 mps 754 mmHg 54%
23:00 +2°C° 0 mm 3 mps 754 mmHg 55%

Tomorrow, 29 October, Thursday

Time Temperature Precipitation Wind Pressure Humidity
00:00 +2°C° 0 mm 3 mps 753 mmHg 57%
01:00 +1°C° 0 mm 3 mps 753 mmHg 58%
02:00 +1°C° 0 mm 3 mps 753 mmHg 60%
03:00 +1°C° 0 mm 3 mps 753 mmHg 62%
04:00 0°C° 0 mm 3 mps 753 mmHg 63%
05:00 0°C° 0 mm 3 mps 753 mmHg 64%
06:00 0°C° 0 mm 3 mps 752 mmHg 65%
07:00 0°C° 0 mm 4 mps 752 mmHg 63%
08:00 0°C° 0 mm 4 mps 752 mmHg 61%
09:00 +1°C° 0 mm 4 mps 752 mmHg 59%
10:00 +2°C° 0 mm 5 mps 752 mmHg 55%
11:00 +5°C° 0 mm 5 mps 752 mmHg 52%
12:00 +6°C° 0 mm 5 mps 751 mmHg 49%
13:00 +7°C° 0 mm 5 mps 751 mmHg 49%
14:00 +7°C° 0 mm 5 mps 750 mmHg 49%
15:00 +8°C° 0 mm 5 mps 750 mmHg 49%
16:00 +7°C° 0 mm 4 mps 750 mmHg 51%
17:00 +6°C° 0 mm 4 mps 749 mmHg 53%
18:00 +6°C° 0 mm 4 mps 749 mmHg 56%
19:00 +5°C° 0 mm 4 mps 749 mmHg 56%
20:00 +5°C° 0 mm 4 mps 749 mmHg 56%
21:00 +5°C° 0 mm 5 mps 749 mmHg 56%
22:00 +5°C° 0 mm 4 mps 748 mmHg 58%
23:00 +5°C° 0 mm 4 mps 748 mmHg 60%

Day after tomorrow, 30 October, Friday

Time Temperature Precipitation Wind Pressure Humidity
00:00 +5°C° 0 mm 4 mps 748 mmHg 62%
01:00 +5°C° 0 mm 4 mps 747 mmHg 63%
02:00 +5°C° 0 mm 4 mps 747 mmHg 63%
03:00 +6°C° 0 mm 4 mps 747 mmHg 64%
04:00 +6°C° 0 mm 4 mps 746 mmHg 64%
05:00 +6°C° 0 mm 4 mps 746 mmHg 64%
06:00 +6°C° 0 mm 4 mps 746 mmHg 64%
07:00 +6°C° 0.1 mm 4 mps 746 mmHg 68%
08:00 +6°C° 0.1 mm 4 mps 746 mmHg 72%
09:00 +6°C° 0.1 mm 4 mps 746 mmHg 76%
10:00 +6°C° 0.2 mm 5 mps 746 mmHg 76%
11:00 +6°C° 0.2 mm 5 mps 745 mmHg 76%
12:00 +6°C° 0.2 mm 5 mps 745 mmHg 76%
13:00 +6°C° 1.3 mm 5 mps 745 mmHg 81%
14:00 +5°C° 1.3 mm 4 mps 745 mmHg 85%
15:00 +5°C° 1.3 mm 4 mps 744 mmHg 90%
16:00 +5°C° 0.8 mm 3 mps 744 mmHg 88%
17:00 +7°C° 0.8 mm 3 mps 744 mmHg 87%
18:00 +7°C° 0.8 mm 2 mps 744 mmHg 86%
19:00 +7°C° 0.2 mm 2 mps 744 mmHg 88%
20:00 +7°C° 0.2 mm 2 mps 744 mmHg 90%
21:00 +7°C° 0.2 mm 2 mps 744 mmHg 92%
22:00 +7°C° 0.1 mm 2 mps 743 mmHg 94%
23:00 +7°C° 0.1 mm 2 mps 743 mmHg 95%

31 October, Saturday

Time Temperature Precipitation Wind Pressure Humidity
00:00 +7°C° 0.1 mm 2 mps 743 mmHg 97%
01:00 +9°C° 0.1 mm 1 mps 743 mmHg 97%
02:00 +9°C° 0.1 mm 1 mps 743 mmHg 96%
03:00 +9°C° 0.1 mm 1 mps 742 mmHg 96%
04:00 +9°C° 0.1 mm 1 mps 743 mmHg 96%
05:00 +9°C° 0.1 mm 1 mps 743 mmHg 96%
06:00 +9°C° 0.1 mm 1 mps 743 mmHg 96%
07:00 +9°C° 0.1 mm 1 mps 743 mmHg 95%
08:00 +9°C° 0.1 mm 1 mps 743 mmHg 95%
09:00 +9°C° 0.1 mm 1 mps 744 mmHg 94%
10:00 +10°C° 0 mm 1 mps 744 mmHg 92%
11:00 +10°C° 0 mm 1 mps 745 mmHg 89%
12:00 +11°C° 0 mm 1 mps 745 mmHg 86%
13:00 +11°C° 0 mm 1 mps 745 mmHg 86%
14:00 +11°C° 0 mm 1 mps 745 mmHg 85%
15:00 +10°C° 0 mm 2 mps 746 mmHg 84%
16:00 +10°C° 0 mm 2 mps 746 mmHg 86%
17:00 +10°C° 0 mm 2 mps 746 mmHg 87%
18:00 +9°C° 0 mm 2 mps 747 mmHg 89%
19:00 +9°C° 0 mm 2 mps 747 mmHg 90%
20:00 +9°C° 0 mm 3 mps 747 mmHg 90%
21:00 +9°C° 0 mm 3 mps 747 mmHg 91%
22:00 +9°C° 0 mm 3 mps 748 mmHg 91%
23:00 +9°C° 0 mm 3 mps 748 mmHg 91%

1 November, Sunday

Time Temperature Precipitation Wind Pressure Humidity
00:00 +8°C° 0 mm 3 mps 748 mmHg 91%
01:00 +8°C° 0 mm 3 mps 748 mmHg 91%
02:00 +7°C° 0 mm 4 mps 748 mmHg 90%
03:00 +7°C° 0 mm 4 mps 748 mmHg 90%
04:00 +7°C° 0.1 mm 4 mps 748 mmHg 90%
05:00 +7°C° 0.1 mm 5 mps 748 mmHg 90%
06:00 +7°C° 0.1 mm 5 mps 748 mmHg 90%
07:00 +7°C° 0.1 mm 5 mps 749 mmHg 90%
08:00 +7°C° 0.1 mm 5 mps 749 mmHg 89%
09:00 +7°C° 0.1 mm 5 mps 749 mmHg 89%
10:00 +7°C° 0.1 mm 5 mps 749 mmHg 89%
11:00 +7°C° 0.1 mm 5 mps 749 mmHg 88%
12:00 +7°C° 0.1 mm 5 mps 749 mmHg 88%
13:00 +7°C° 0.2 mm 5 mps 749 mmHg 88%
14:00 +7°C° 0.2 mm 4 mps 750 mmHg 89%
15:00 +7°C° 0.2 mm 4 mps 750 mmHg 89%
16:00 +6°C° 0 mm 4 mps 750 mmHg 89%
17:00 +6°C° 0 mm 4 mps 750 mmHg 89%
18:00 +6°C° 0 mm 4 mps 750 mmHg 90%
19:00 +6°C° 0 mm 4 mps 750 mmHg 90%
20:00 +6°C° 0 mm 4 mps 750 mmHg 90%
21:00 +6°C° 0 mm 4 mps 750 mmHg 91%
22:00 +7°C° 0 mm 3 mps 750 mmHg 91%
23:00 +7°C° 0 mm 3 mps 751 mmHg 91%

2 November, Monday

Time Temperature Precipitation Wind Pressure Humidity
00:00 +7°C° 0 mm 3 mps 751 mmHg 91%
01:00 +7°C° 0.2 mm 3 mps 751 mmHg 92%
02:00 +7°C° 0.2 mm 3 mps 751 mmHg 93%
03:00 +7°C° 0.2 mm 3 mps 751 mmHg 93%
04:00 +7°C° 0.1 mm 2 mps 751 mmHg 94%
05:00 +7°C° 0.1 mm 2 mps 751 mmHg 94%
06:00 +7°C° 0.1 mm 2 mps 752 mmHg 94%
07:00 +7°C° 0 mm 2 mps 752 mmHg 94%
08:00 +7°C° 0 mm 2 mps 752 mmHg 93%
09:00 +7°C° 0 mm 2 mps 752 mmHg 93%
10:00 +8°C° 0 mm 2 mps 753 mmHg 90%
11:00 +10°C° 0 mm 1 mps 753 mmHg 88%
12:00 +10°C° 0 mm 1 mps 753 mmHg 85%
13:00 +10°C° 0 mm 1 mps 753 mmHg 85%
14:00 +11°C° 0 mm 1 mps 754 mmHg 84%
15:00 +11°C° 0 mm 1 mps 754 mmHg 84%
16:00 +9°C° 0 mm 2 mps 754 mmHg 86%
17:00 +9°C° 0 mm 2 mps 754 mmHg 89%
18:00 +8°C° 0 mm 2 mps 754 mmHg 92%
19:00 +8°C° 0 mm 2 mps 754 mmHg 93%
20:00 +7°C° 0 mm 2 mps 754 mmHg 94%
21:00 +8°C° 0 mm 1 mps 754 mmHg 95%
22:00 +7°C° 0 mm 2 mps 754 mmHg 95%
23:00 +6°C° 0 mm 2 mps 754 mmHg 95%
Show more